,,,PA_Meas_PMT16A,,PR_Meas_QMR101_102,,RH_Meas_QMH101,,SR_Meas_QMS101,,TA_Meas_QMH101,,GenWind,,GenWind,
date,time,status,PA,status,PR,status,RH,status,SR,status,TA,status,DirAvg,status,SpdAvg,
2011-01-19, 00:00:04,VALID,1003.46,VALID,0,INVALID,163.769,VALID,0,VALID,23.1586,VALID,10,VALID,0.364062,
2011-01-19, 00:01:04,VALID,1003.46,VALID,0,INVALID,163.777,VALID,0,VALID,23.217,VALID,10,VALID,0.333203,
2011-01-19, 00:02:04,VALID,1003.47,VALID,0,INVALID,163.746,VALID,0,VALID,23.2152,VALID,10,VALID,0.398828,
2011-01-19, 00:03:04,VALID,1003.46,VALID,0,INVALID,163.762,VALID,0,VALID,23.2152,VALID,10,VALID,0.285547,
2011-01-19, 00:04:04,VALID,1003.45,VALID,0,INVALID,163.769,VALID,0,VALID,23.1957,VALID,10,VALID,0.335547,
2011-01-19, 00:05:04,VALID,1003.47,VALID,0,INVALID,163.792,VALID,0,VALID,23.1763,VALID,10,VALID,0.475391,
2011-01-19, 00:06:04,VALID,1003.47,VALID,0,INVALID,163.746,VALID,0,VALID,23.178,VALID,10,VALID,0.557031,
2011-01-19, 00:07:04,VALID,1003.48,VALID,0,INVALID,163.762,VALID,0,VALID,23.1179,VALID,10,VALID,0.533203,
2011-01-19, 00:08:04,VALID,1003.48,VALID,0,INVALID,163.754,VALID,0,VALID,23.1374,VALID,10,VALID,0.609375,
2011-01-19, 00:09:04,VALID,1003.47,VALID,0,INVALID,163.746,VALID,0,VALID,23.178,VALID,10,VALID,0.631641,
2011-01-19, 00:10:04,VALID,1003.49,VALID,0,INVALID,163.762,VALID,0,VALID,23.1975,VALID,10,VALID,0.610937,
2011-01-19, 00:11:04,VALID,1003.44,VALID,0,INVALID,163.746,VALID,0,VALID,23.1957,VALID,5,VALID,0.699609,
2011-01-19, 00:12:04,VALID,1003.43,VALID,0,INVALID,163.792,VALID,0,VALID,23.2152,VALID,5,VALID,0.575781,
2011-01-19, 00:13:04,VALID,1003.44,VALID,0,INVALID,163.746,VALID,0,VALID,23.2364,VALID,5,VALID,0.557813,
2011-01-19, 00:14:04,VALID,1003.38,VALID,0,INVALID,163.769,VALID,0,VALID,23.194,VALID,5,VALID,0.644531,
2011-01-19, 00:15:04,VALID,1003.42,VALID,0,INVALID,163.792,VALID,0,VALID,23.2152,VALID,5,VALID,0.553125,
2011-01-19, 00:16:04,VALID,1003.39,VALID,0,INVALID,163.731,VALID,0,VALID,23.2754,VALID,5,VALID,0.560938,
2011-01-19, 00:17:04,VALID,1003.37,VALID,0,INVALID,163.769,VALID,0.100563,VALID,23.2541,VALID,5,VALID,0.599609,
2011-01-19, 00:18:04,VALID,1003.37,VALID,0,INVALID,163.777,VALID,0,VALID,23.2736,VALID,5,VALID,0.535937,
2011-01-19, 00:19:04,VALID,1003.35,VALID,0,INVALID,163.777,VALID,0,VALID,23.3125,VALID,1,VALID,0.812891,
2011-01-19, 00:20:04,VALID,1003.38,VALID,0,INVALID,163.784,VALID,0,VALID,23.3107,VALID,360,VALID,0.686719,
2011-01-19, 00:21:04,VALID,1003.32,VALID,0,INVALID,163.754,VALID,0,VALID,23.2736,VALID,360,VALID,0.461328,
2011-01-19, 00:22:04,VALID,1003.31,VALID,0,INVALID,163.769,VALID,0.100563,VALID,23.2347,VALID,360,VALID,0.636719,
2011-01-19, 00:23:04,VALID,1003.32,VALID,0,INVALID,163.754,VALID,0,VALID,23.2152,VALID,360,VALID,0.594531,
2011-01-19, 00:24:04,VALID,1003.32,VALID,0,INVALID,163.784,VALID,0,VALID,23.2152,VALID,359,VALID,0.579297,
2011-01-19, 00:25:04,VALID,1003.33,VALID,0,INVALID,163.784,VALID,0.100563,VALID,23.2347,VALID,358,VALID,0.585156,
2011-01-19, 00:26:04,VALID,1003.32,VALID,0,INVALID,163.754,VALID,0,VALID,23.2134,VALID,358,VALID,0.590234,
2011-01-19, 00:27:04,VALID,1003.35,VALID,0,INVALID,163.777,VALID,0.100563,VALID,23.2152,VALID,358,VALID,0.623828,
2011-01-19, 00:28:04,VALID,1003.36,VALID,0,INVALID,163.762,VALID,0,VALID,23.2152,VALID,358,VALID,0.680078,
2011-01-19, 00:29:04,VALID,1003.36,VALID,0,INVALID,163.762,VALID,0,VALID,23.2152,VALID,358,VALID,0.653125,
2011-01-19, 00:30:04,VALID,1003.35,VALID,0,INVALID,163.769,VALID,0,VALID,23.2347,VALID,358,VALID,0.637109,
2011-01-19, 00:31:04,VALID,1003.35,VALID,0,INVALID,163.784,VALID,0,VALID,23.2736,VALID,357,VALID,0.675781,
2011-01-19, 00:32:04,VALID,1003.37,VALID,0,INVALID,163.746,VALID,0,VALID,23.3125,VALID,351,VALID,0.761328,
2011-01-19, 00:33:04,VALID,1003.34,VALID,0,INVALID,163.762,VALID,0,VALID,23.2913,VALID,351,VALID,0.564062,
2011-01-19, 00:34:04,VALID,1003.34,VALID,0,INVALID,163.746,VALID,0,VALID,23.3125,VALID,351,VALID,0.523828,
2011-01-19, 00:35:04,VALID,1003.33,VALID,0,INVALID,163.731,VALID,0.100563,VALID,23.3302,VALID,343,VALID,0.644531,
2011-01-19, 00:36:04,VALID,1003.3,VALID,0,INVALID,163.739,VALID,0,VALID,23.3514,VALID,343,VALID,0.636328,
2011-01-19, 00:37:04,VALID,1003.31,VALID,0,INVALID,163.746,VALID,0.100563,VALID,23.332,VALID,344,VALID,0.329297,
2011-01-19, 00:38:04,VALID,1003.29,VALID,0,INVALID,163.754,VALID,0.100563,VALID,23.332,VALID,343,VALID,0.335938,
2011-01-19, 00:39:05,VALID,1003.25,VALID,0,INVALID,163.754,VALID,0.100563,VALID,23.2913,VALID,343,VALID,0.395703,
2011-01-19, 00:40:04,VALID,1003.2,VALID,0,INVALID,163.769,VALID,0,VALID,23.3125,VALID,343,VALID,0.40625,
2011-01-19, 00:41:05,VALID,1003.2,VALID,0,INVALID,163.769,VALID,0.100563,VALID,23.3107,VALID,321,VALID,0.285547,
2011-01-19, 00:42:05,VALID,1003.18,VALID,0,INVALID,163.777,VALID,0,VALID,23.332,VALID,321,VALID,0.0398437,
2011-01-19, 00:43:05,VALID,1003.18,VALID,0,INVALID,163.739,VALID,0,VALID,23.332,VALID,335,VALID,0.358984,
2011-01-19, 00:44:05,VALID,1003.19,VALID,0,INVALID,163.762,VALID,0,VALID,23.2931,VALID,335,VALID,0.258203,
2011-01-19, 00:45:05,VALID,1003.18,VALID,0,INVALID,163.762,VALID,0,VALID,23.2541,VALID,335,VALID,0.371875,
2011-01-19, 00:46:05,VALID,1003.19,VALID,0,INVALID,163.792,VALID,0,VALID,23.2347,VALID,335,VALID,0.551172,
2011-01-19, 00:47:05,VALID,1003.18,VALID,0,INVALID,163.754,VALID,0,VALID,23.2524,VALID,335,VALID,0.408984,
2011-01-19, 00:48:05,VALID,1003.2,VALID,0,INVALID,163.739,VALID,0,VALID,23.2541,VALID,335,VALID,0.544141,
2011-01-19, 00:49:05,VALID,1003.22,VALID,0,INVALID,163.777,VALID,0.100563,VALID,23.2364,VALID,335,VALID,0.462109,
2011-01-19, 00:50:05,VALID,1003.18,VALID,0,INVALID,163.762,VALID,0,VALID,23.2152,VALID,335,VALID,0.458203,
2011-01-19, 00:51:05,VALID,1003.2,VALID,0,INVALID,163.777,VALID,0,VALID,23.2152,VALID,335,VALID,0.470703,
2011-01-19, 00:52:05,VALID,1003.18,VALID,0,INVALID,163.754,VALID,0,VALID,23.2347,VALID,335,VALID,0.462891,
2011-01-19, 00:53:05,VALID,1003.19,VALID,0,INVALID,163.762,VALID,0,VALID,23.2364,VALID,335,VALID,0.389844,
2011-01-19, 00:54:05,VALID,1003.19,VALID,0,INVALID,163.777,VALID,0,VALID,23.2347,VALID,335,VALID,0.350781,
2011-01-19, 00:55:05,VALID,1003.18,VALID,0,INVALID,163.777,VALID,0,VALID,23.2541,VALID,335,VALID,0.385156,
2011-01-19, 00:56:05,VALID,1003.18,VALID,0,INVALID,163.762,VALID,0,VALID,23.2541,VALID,335,VALID,0.444141,
2011-01-19, 00:57:05,VALID,1003.18,VALID,0,INVALID,163.769,VALID,0,VALID,23.2736,VALID,340,VALID,0.257422,
2011-01-19, 00:58:05,VALID,1003.23,VALID,0,INVALID,163.784,VALID,0,VALID,23.2152,VALID,340,VALID,0.346875,
2011-01-19, 00:59:05,VALID,1003.25,VALID,0,INVALID,163.807,VALID,0,VALID,23.217,VALID,340,VALID,0.401953,
2011-01-19, 01:00:05,VALID,1003.25,VALID,0,INVALID,163.777,VALID,0,VALID,23.178,VALID,340,VALID,0.392578,
2011-01-19, 01:01:05,VALID,1003.28,VALID,0,INVALID,163.769,VALID,0,VALID,23.1374,VALID,340,VALID,0.514453,
2011-01-19, 01:02:05,VALID,1003.31,VALID,0,INVALID,163.777,VALID,0,VALID,23.1374,VALID,340,VALID,0.522656,
2011-01-19, 01:03:05,VALID,1003.29,VALID,0,INVALID,163.784,VALID,0.100563,VALID,23.1568,VALID,354,VALID,0.651563,
2011-01-19, 01:04:05,VALID,1003.29,VALID,0,INVALID,163.769,VALID,0,VALID,23.1763,VALID,354,VALID,0.584375,
2011-01-19, 01:05:05,VALID,1003.28,VALID,0,INVALID,163.739,VALID,0,VALID,23.1763,VALID,354,VALID,0.697266,
2011-01-19, 01:06:05,VALID,1003.29,VALID,0,INVALID,163.762,VALID,0,VALID,23.1763,VALID,354,VALID,0.645703,
2011-01-19, 01:07:05,VALID,1003.3,VALID,0,INVALID,163.754,VALID,0,VALID,23.1162,VALID,354,VALID,0.565234,
2011-01-19, 01:08:05,VALID,1003.3,VALID,0,INVALID,163.777,VALID,0,VALID,23.1179,VALID,354,VALID,0.510547,
2011-01-19, 01:09:05,VALID,1003.27,VALID,0,INVALID,163.792,VALID,0,VALID,23.0984,VALID,354,VALID,0.637891,
2011-01-19, 01:10:05,VALID,1003.28,VALID,0,INVALID,163.784,VALID,0,VALID,23.079,VALID,354,VALID,0.453906,
2011-01-19, 01:11:05,VALID,1003.25,VALID,0,INVALID,163.777,VALID,0.100563,VALID,23.079,VALID,354,VALID,0.446484,
2011-01-19, 01:12:05,VALID,1003.27,VALID,0,INVALID,163.777,VALID,0,VALID,23.079,VALID,354,VALID,0.496094,
2011-01-19, 01:13:05,VALID,1003.26,VALID,0,INVALID,163.777,VALID,0,VALID,23.0984,VALID,354,VALID,0.575781,
2011-01-19, 01:14:05,VALID,1003.28,VALID,0,INVALID,163.769,VALID,0.100563,VALID,23.079,VALID,354,VALID,0.650781,
2011-01-19, 01:15:05,VALID,1003.33,VALID,0,INVALID,163.807,VALID,0,VALID,23.079,VALID,354,VALID,0.491797,
2011-01-19, 01:16:05,VALID,1003.33,VALID,0,INVALID,163.784,VALID,0,VALID,23.0578,VALID,354,VALID,0.505078,
2011-01-19, 01:17:05,VALID,1003.31,VALID,0,INVALID,163.777,VALID,0.100563,VALID,23.0578,VALID,354,VALID,0.419531,
2011-01-19, 01:18:05,VALID,1003.33,VALID,0,INVALID,163.754,VALID,0,VALID,23.0595,VALID,351,VALID,0.500391,
2011-01-19, 01:19:05,VALID,1003.33,VALID,0,INVALID,163.784,VALID,0.100563,VALID,23.0383,VALID,345,VALID,0.242578,
2011-01-19, 01:20:05,VALID,1003.32,VALID,0,INVALID,163.792,VALID,0,VALID,23.0383,VALID,345,VALID,0.300781,
2011-01-19, 01:21:05,VALID,1003.3,VALID,0,INVALID,163.784,VALID,0,VALID,23.0595,VALID,345,VALID,0.405469,
2011-01-19, 01:22:05,VALID,1003.3,VALID,0,INVALID,163.777,VALID,0.100563,VALID,23.0383,VALID,345,VALID,0.358203,
2011-01-19, 01:23:05,VALID,1003.32,VALID,0,INVALID,163.754,VALID,0.100563,VALID,23.0807,VALID,345,VALID,0.394531,
2011-01-19, 01:24:05,VALID,1003.33,VALID,0,INVALID,163.746,VALID,0,VALID,23.0383,VALID,345,VALID,0.488672,
2011-01-19, 01:25:05,VALID,1003.36,VALID,0,INVALID,163.739,VALID,0,VALID,23.0984,VALID,345,VALID,0.311719,
2011-01-19, 01:26:05,VALID,1003.33,VALID,0,INVALID,163.762,VALID,0,VALID,23.0967,VALID,345,VALID,0.421484,
2011-01-19, 01:27:05,VALID,1003.35,VALID,0,INVALID,163.777,VALID,0.100563,VALID,23.1374,VALID,359,VALID,0.379297,
2011-01-19, 01:28:05,VALID,1003.34,VALID,0,INVALID,163.769,VALID,0.100563,VALID,23.1374,VALID,359,VALID,0.429297,
2011-01-19, 01:29:05,VALID,1003.33,VALID,0,INVALID,163.762,VALID,0,VALID,23.1568,VALID,14,VALID,0.807031,
2011-01-19, 01:30:05,VALID,1003.32,VALID,0,INVALID,163.754,VALID,0,VALID,23.1957,VALID,35,VALID,0.526563,
2011-01-19, 01:31:05,VALID,1003.32,VALID,0,INVALID,163.769,VALID,0,VALID,23.3125,VALID,11,VALID,0.839844,
2011-01-19, 01:32:05,VALID,1003.3,VALID,0,INVALID,163.731,VALID,0.100563,VALID,23.3886,VALID,8,VALID,0.21875,
2011-01-19, 01:33:05,VALID,1003.28,VALID,0,INVALID,163.723,VALID,0.100563,VALID,23.47,VALID,358,VALID,0.897266,
2011-01-19, 01:34:05,VALID,1003.27,VALID,0,INVALID,163.708,VALID,0,VALID,23.546,VALID,10,VALID,0.394531,
2011-01-19, 01:35:05,VALID,1003.27,VALID,0,INVALID,163.754,VALID,0,VALID,23.5655,VALID,1,VALID,0.609766,
2011-01-19, 01:36:05,VALID,1003.3,VALID,0,INVALID,163.731,VALID,0,VALID,23.6044,VALID,355,VALID,0.539063,
2011-01-19, 01:37:05,VALID,1003.26,VALID,0,INVALID,163.731,VALID,0,VALID,23.6628,VALID,342,VALID,0.440234,
2011-01-19, 01:38:05,VALID,1003.26,VALID,0,INVALID,163.746,VALID,0,VALID,23.6823,VALID,346,VALID,0.457422,
2011-01-19, 01:39:05,VALID,1003.27,VALID,0,INVALID,163.769,VALID,0,VALID,23.7017,VALID,358,VALID,0.680078,
2011-01-19, 01:40:05,VALID,1003.26,VALID,0,INVALID,161.069,VALID,0.100563,VALID,23.7017,VALID,340,VALID,0.494922,
2011-01-19, 01:41:05,VALID,1003.24,VALID,0,INVALID,163.685,VALID,0,VALID,23.7407,VALID,341,VALID,0.460938,
2011-01-19, 01:42:05,VALID,1003.24,VALID,0,INVALID,163.716,VALID,0.100563,VALID,23.7407,VALID,10,VALID,0.760938,
2011-01-19, 01:43:05,VALID,1003.25,VALID,0,INVALID,163.723,VALID,0.100563,VALID,23.7194,VALID,11,VALID,0.430469,
2011-01-19, 01:44:05,VALID,1003.23,VALID,0,INVALID,163.739,VALID,0,VALID,23.7017,VALID,10,VALID,0.560938,
2011-01-19, 01:45:05,VALID,1003.23,VALID,0,INVALID,163.739,VALID,0,VALID,23.6628,VALID,10,VALID,0.5125,
2011-01-19, 01:46:05,VALID,1003.24,VALID,0,INVALID,163.731,VALID,0.100563,VALID,23.6239,VALID,4,VALID,0.594141,
2011-01-19, 01:47:05,VALID,1003.23,VALID,0,INVALID,163.746,VALID,0.100563,VALID,23.585,VALID,348,VALID,0.479297,
2011-01-19, 01:48:05,VALID,1003.21,VALID,0,INVALID,163.723,VALID,0.100563,VALID,23.5655,VALID,348,VALID,0.483203,
2011-01-19, 01:49:05,VALID,1003.2,VALID,0,INVALID,163.739,VALID,0,VALID,23.5266,VALID,348,VALID,0.548047,
2011-01-19, 01:50:05,VALID,1003.17,VALID,0,INVALID,163.746,VALID,0,VALID,23.5071,VALID,345,VALID,0.517969,
2011-01-19, 01:51:05,VALID,1003.15,VALID,0,INVALID,163.746,VALID,0.100563,VALID,23.4877,VALID,343,VALID,0.466797,
2011-01-19, 01:52:05,VALID,1003.14,VALID,0,INVALID,163.746,VALID,0.100563,VALID,23.4487,VALID,343,VALID,0.494141,
2011-01-19, 01:53:05,VALID,1003.11,VALID,0,INVALID,163.731,VALID,0.100563,VALID,23.4098,VALID,343,VALID,0.546875,
2011-01-19, 01:54:05,VALID,1003.08,VALID,0,INVALID,163.769,VALID,0.100563,VALID,23.3497,VALID,343,VALID,0.557031,
2011-01-19, 01:55:05,VALID,1003.04,VALID,0,INVALID,163.777,VALID,0.100563,VALID,23.332,VALID,344,VALID,0.632813,
2011-01-19, 01:56:05,VALID,1003.05,VALID,0,INVALID,163.762,VALID,0.100563,VALID,23.2931,VALID,344,VALID,0.565625,
2011-01-19, 01:57:05,VALID,1003.03,VALID,0,INVALID,163.754,VALID,0.100563,VALID,23.2541,VALID,346,VALID,0.516406,
2011-01-19, 01:58:05,VALID,1003.04,VALID,0,INVALID,163.762,VALID,0.100563,VALID,23.194,VALID,346,VALID,0.758984,
2011-01-19, 01:59:05,VALID,1003.03,VALID,0,INVALID,163.754,VALID,0.100563,VALID,23.1763,VALID,346,VALID,0.760156,
2011-01-19, 02:00:05,VALID,1003.02,VALID,0,INVALID,163.784,VALID,0,VALID,23.0967,VALID,346,VALID,0.713281,
2011-01-19, 02:01:05,VALID,1003.03,VALID,0,INVALID,163.792,VALID,0.100563,VALID,23.079,VALID,346,VALID,0.612109,
2011-01-19, 02:02:05,VALID,1003.06,VALID,0,INVALID,163.792,VALID,0.100563,VALID,23.0383,VALID,343,VALID,0.581641,
2011-01-19, 02:03:05,VALID,1003.04,VALID,0,INVALID,163.754,VALID,0.100563,VALID,23.0383,VALID,346,VALID,0.532031,
2011-01-19, 02:04:05,VALID,1003.05,VALID,0,INVALID,163.792,VALID,0.100563,VALID,23.0383,VALID,334,VALID,0.303125,
2011-01-19, 02:05:05,VALID,1003.11,VALID,0,INVALID,163.777,VALID,0.100563,VALID,23.0578,VALID,339,VALID,0.759766,
2011-01-19, 02:06:05,VALID,1003.09,VALID,0,INVALID,163.777,VALID,0,VALID,23.1162,VALID,349,VALID,0.869141,
2011-01-19, 02:07:05,VALID,1003.07,VALID,0,INVALID,163.754,VALID,0.100563,VALID,23.1763,VALID,343,VALID,0.610156,
2011-01-19, 02:08:05,VALID,1003.06,VALID,0,INVALID,163.777,VALID,0,VALID,23.2152,VALID,333,VALID,0.507031,
2011-01-19, 02:09:05,VALID,1003.08,VALID,0,INVALID,163.754,VALID,0.100563,VALID,23.2913,VALID,345,VALID,0.691406,
2011-01-19, 02:10:05,VALID,1003.08,VALID,0,INVALID,163.784,VALID,0.100563,VALID,23.3904,VALID,355,VALID,1.03555,
2011-01-19, 02:11:05,VALID,1003.07,VALID,0,INVALID,163.716,VALID,0.100563,VALID,23.5071,VALID,337,VALID,1.17188,
2011-01-19, 02:12:05,VALID,1003.07,VALID,0,INVALID,163.723,VALID,0,VALID,23.585,VALID,348,VALID,0.746875,
2011-01-19, 02:13:05,VALID,1003.07,VALID,0,INVALID,148.382,VALID,0,VALID,23.6026,VALID,346,VALID,0.845312,
2011-01-19, 02:14:05,VALID,1003.05,VALID,0,INVALID,128.455,VALID,0.100563,VALID,23.6823,VALID,343,VALID,0.789844,
2011-01-19, 02:15:05,VALID,1003.02,VALID,0,INVALID,120.002,VALID,0.100563,VALID,23.7601,VALID,355,VALID,0.726172,
2011-01-19, 02:16:05,VALID,1002.99,VALID,0,INVALID,113.091,VALID,0.100563,VALID,23.7991,VALID,350,VALID,0.853906,
2011-01-19, 02:17:05,VALID,1002.98,VALID,0,INVALID,110.832,VALID,0.100563,VALID,23.838,VALID,354,VALID,0.790625,
2011-01-19, 02:18:05,VALID,1002.97,VALID,0,VALID,104,VALID,0,VALID,23.8556,VALID,350,VALID,0.720703,
2011-01-19, 02:19:05,VALID,1002.99,VALID,0,VALID,104,VALID,0.100563,VALID,23.8751,VALID,345,VALID,0.643359,
2011-01-19, 02:20:05,VALID,1002.95,VALID,0,VALID,104,VALID,0,VALID,23.9353,VALID,356,VALID,1.22734,
2011-01-19, 02:21:05,VALID,1002.97,VALID,0,VALID,103.875,VALID,0.100563,VALID,23.9548,VALID,344,VALID,0.601172,
2011-01-19, 02:22:05,VALID,1002.94,VALID,0,VALID,103.455,VALID,0,VALID,23.9335,VALID,339,VALID,0.671875,
2011-01-19, 02:23:05,VALID,1002.96,VALID,0,VALID,103.631,VALID,0.100563,VALID,23.9335,VALID,349,VALID,0.738281,
2011-01-19, 02:24:05,VALID,1002.98,VALID,0,VALID,102.784,VALID,0.100563,VALID,23.953,VALID,357,VALID,0.636328,
2011-01-19, 02:25:05,VALID,1003.01,VALID,0,VALID,102.944,VALID,0.100563,VALID,23.9742,VALID,352,VALID,0.744141,
2011-01-19, 02:26:05,VALID,1003,VALID,0,VALID,102.578,VALID,0.100563,VALID,23.9742,VALID,342,VALID,0.815234,
2011-01-19, 02:27:05,VALID,1003.01,VALID,0,VALID,101.998,VALID,0.100563,VALID,23.9919,VALID,337,VALID,0.704687,
2011-01-19, 02:28:05,VALID,1003.02,VALID,0,VALID,101.838,VALID,0.100563,VALID,24.0114,VALID,348,VALID,0.490234,
2011-01-19, 02:29:05,VALID,1003.02,VALID,0,VALID,101.258,VALID,0,VALID,24.0326,VALID,352,VALID,1.11797,
2011-01-19, 02:30:05,VALID,1003,VALID,0,VALID,101.128,VALID,0,VALID,24.0503,VALID,349,VALID,0.539063,
2011-01-19, 02:31:05,VALID,1002.99,VALID,0,VALID,101.289,VALID,0,VALID,24.0716,VALID,344,VALID,0.570313,
2011-01-19, 02:32:05,VALID,1003,VALID,0,VALID,101.075,VALID,0,VALID,24.0503,VALID,335,VALID,0.685938,
2011-01-19, 02:33:05,VALID,1002.99,VALID,0,VALID,101.693,VALID,0.100563,VALID,24.0503,VALID,1,VALID,0.574609,
2011-01-19, 02:34:05,VALID,1003,VALID,0,VALID,101.868,VALID,0,VALID,24.0521,VALID,353,VALID,1.00039,
2011-01-19, 02:35:05,VALID,1002.99,VALID,0,VALID,102.204,VALID,0,VALID,24.0326,VALID,351,VALID,0.787891,
2011-01-19, 02:36:05,VALID,1002.94,VALID,0,VALID,103.554,VALID,0,VALID,23.9919,VALID,355,VALID,0.888672,
2011-01-19, 02:37:05,VALID,1002.98,VALID,0,VALID,104,VALID,0.100563,VALID,23.9548,VALID,353,VALID,0.703125,
2011-01-19, 02:38:05,VALID,1003,VALID,0,VALID,104,VALID,0.100563,VALID,23.9548,VALID,353,VALID,0.969141,
2011-01-19, 02:39:05,VALID,1003,VALID,0,VALID,104,VALID,0.100563,VALID,23.9742,VALID,347,VALID,0.641016,
2011-01-19, 02:40:05,VALID,1003,VALID,0,VALID,104,VALID,0,VALID,23.9548,VALID,346,VALID,0.577344,
2011-01-19, 02:41:05,VALID,1003.01,VALID,0,VALID,104,VALID,0.100563,VALID,23.9335,VALID,344,VALID,0.541797,
2011-01-19, 02:42:05,VALID,1003.04,VALID,0,VALID,104,VALID,0.100563,VALID,23.9742,VALID,342,VALID,0.376563,
2011-01-19, 02:43:05,VALID,1003.05,VALID,0,VALID,104,VALID,0.100563,VALID,23.9742,VALID,342,VALID,0.311719,
2011-01-19, 02:44:05,VALID,1003.04,VALID,0,VALID,104,VALID,0.100563,VALID,23.9548,VALID,347,VALID,0.669141,
2011-01-19, 02:45:05,VALID,1003.05,VALID,0,VALID,104,VALID,0.100563,VALID,23.9548,VALID,345,VALID,0.575781,
2011-01-19, 02:46:05,VALID,1003.05,VALID,0,VALID,104,VALID,0.100563,VALID,23.9353,VALID,354,VALID,0.547266,
2011-01-19, 02:47:05,VALID,1003.05,VALID,0,VALID,104,VALID,0,VALID,23.9353,VALID,15,VALID,0.769141,
2011-01-19, 02:48:05,VALID,1003.02,VALID,0,VALID,104,VALID,0,VALID,23.914,VALID,360,VALID,0.545313,
2011-01-19, 02:49:05,VALID,1003.02,VALID,0,INVALID,109.627,VALID,0,VALID,23.914,VALID,360,VALID,0.475,
2011-01-19, 02:50:05,VALID,1002.99,VALID,0,INVALID,109.52,VALID,0,VALID,23.9159,VALID,360,VALID,0.580859,
2011-01-19, 02:51:05,VALID,1002.99,VALID,0,INVALID,109.955,VALID,0.100563,VALID,23.914,VALID,360,VALID,0.447656,
2011-01-19, 02:52:05,VALID,1003,VALID,0,INVALID,111.694,VALID,0,VALID,23.9159,VALID,360,VALID,0.348828,
2011-01-19, 02:53:05,VALID,1002.97,VALID,0,INVALID,113.609,VALID,0,VALID,23.8964,VALID,360,VALID,0.175,
2011-01-19, 02:54:05,VALID,1002.96,VALID,0,INVALID,116.775,VALID,0,VALID,23.8787,VALID,360,VALID,0,
2011-01-19, 02:55:05,VALID,1002.96,VALID,0,INVALID,121.086,VALID,0.100563,VALID,23.8185,VALID,360,VALID,0.320703,
2011-01-19, 02:56:05,VALID,1002.95,VALID,0,INVALID,130.942,VALID,0,VALID,23.7991,VALID,360,VALID,0.460547,
2011-01-19, 02:57:05,VALID,1002.97,VALID,0,INVALID,153.272,VALID,0,VALID,23.7796,VALID,360,VALID,0.530469,
2011-01-19, 02:58:05,VALID,1002.94,VALID,0,INVALID,163.67,VALID,0.100563,VALID,23.7212,VALID,360,VALID,0.524609,
2011-01-19, 02:59:05,VALID,1002.95,VALID,0,INVALID,163.693,VALID,0,VALID,23.6823,VALID,360,VALID,0.567969,
2011-01-19, 03:00:05,VALID,1002.96,VALID,0,INVALID,163.731,VALID,0.100563,VALID,23.5832,VALID,360,VALID,0.421875,
2011-01-19, 03:01:05,VALID,1002.91,VALID,0,INVALID,163.746,VALID,0,VALID,23.5266,VALID,360,VALID,0.444141,
2011-01-19, 03:02:05,VALID,1002.91,VALID,0,INVALID,163.716,VALID,0,VALID,23.4664,VALID,360,VALID,0.543359,
2011-01-19, 03:03:05,VALID,1002.89,VALID,0,INVALID,163.746,VALID,0,VALID,23.4275,VALID,360,VALID,0.5,
2011-01-19, 03:04:05,VALID,1002.85,VALID,0,INVALID,163.746,VALID,0.100563,VALID,23.4311,VALID,360,VALID,0.588672,
2011-01-19, 03:05:05,VALID,1002.83,VALID,0,INVALID,163.739,VALID,0.100563,VALID,23.3709,VALID,360,VALID,0.436719,
2011-01-19, 03:06:05,VALID,1002.82,VALID,0,INVALID,163.754,VALID,0.100563,VALID,23.3302,VALID,360,VALID,0.718359,
2011-01-19, 03:07:05,VALID,1002.82,VALID,0,INVALID,163.746,VALID,0.100563,VALID,23.3514,VALID,11,VALID,0.546875,
2011-01-19, 03:08:05,VALID,1002.82,VALID,0,INVALID,163.746,VALID,0.100563,VALID,23.3302,VALID,11,VALID,0.354297,
2011-01-19, 03:09:05,VALID,1002.82,VALID,0,INVALID,163.731,VALID,0.100563,VALID,23.332,VALID,11,VALID,0.416797,
2011-01-19, 03:10:05,VALID,1002.83,VALID,0,INVALID,163.754,VALID,0,VALID,23.2718,VALID,11,VALID,0.526563,
2011-01-19, 03:11:05,VALID,1002.83,VALID,0,INVALID,163.784,VALID,0,VALID,23.2329,VALID,11,VALID,0.503516,
2011-01-19, 03:12:05,VALID,1002.84,VALID,0,INVALID,163.777,VALID,0,VALID,23.1957,VALID,11,VALID,0.573828,
2011-01-19, 03:13:05,VALID,1002.83,VALID,0,INVALID,163.769,VALID,0,VALID,23.1568,VALID,11,VALID,0.389062,
2011-01-19, 03:14:05,VALID,1002.84,VALID,0,INVALID,163.762,VALID,0,VALID,23.1551,VALID,9,VALID,0.414063,
2011-01-19, 03:15:05,VALID,1002.84,VALID,0,INVALID,163.784,VALID,0,VALID,23.1568,VALID,7,VALID,0.469922,
2011-01-19, 03:16:05,VALID,1002.85,VALID,0,INVALID,163.746,VALID,0,VALID,23.1568,VALID,7,VALID,0.379687,
2011-01-19, 03:17:04,VALID,1002.85,VALID,0,INVALID,163.784,VALID,0,VALID,23.1568,VALID,5,VALID,0.408594,
2011-01-19, 03:18:04,VALID,1002.84,VALID,0,INVALID,163.746,VALID,0,VALID,23.1568,VALID,3,VALID,0.279687,
2011-01-19, 03:19:04,VALID,1002.87,VALID,0,INVALID,163.762,VALID,0,VALID,23.1374,VALID,3,VALID,0.173438,
2011-01-19, 03:20:04,VALID,1002.86,VALID,0,INVALID,163.769,VALID,0,VALID,23.1179,VALID,3,VALID,0.473437,
2011-01-19, 03:21:04,VALID,1002.88,VALID,0,INVALID,163.762,VALID,0,VALID,23.1179,VALID,8,VALID,0.568359,
2011-01-19, 03:22:04,VALID,1002.89,VALID,0,INVALID,163.762,VALID,0,VALID,23.1179,VALID,8,VALID,0.515234,
2011-01-19, 03:23:04,VALID,1002.9,VALID,0,INVALID,163.777,VALID,0,VALID,23.1162,VALID,20,VALID,0.575781,
2011-01-19, 03:24:04,VALID,1002.87,VALID,0,INVALID,163.769,VALID,0,VALID,23.0984,VALID,20,VALID,0.399219,
2011-01-19, 03:25:04,VALID,1002.9,VALID,0,INVALID,163.762,VALID,0,VALID,23.1179,VALID,20,VALID,0.566016,
2011-01-19, 03:26:04,VALID,1002.87,VALID,0,INVALID,163.784,VALID,0,VALID,23.1179,VALID,20,VALID,0.504687,
2011-01-19, 03:27:04,VALID,1002.9,VALID,0,INVALID,163.777,VALID,0.100563,VALID,23.0984,VALID,20,VALID,0.383984,
2011-01-19, 03:28:04,VALID,1002.88,VALID,0,INVALID,163.784,VALID,0,VALID,23.1179,VALID,356,VALID,0.327734,
2011-01-19, 03:29:04,VALID,1002.88,VALID,0,INVALID,163.777,VALID,0,VALID,23.1179,VALID,356,VALID,0.346094,
2011-01-19, 03:30:04,VALID,1002.87,VALID,0,INVALID,163.777,VALID,0,VALID,23.079,VALID,356,VALID,0.385938,
2011-01-19, 03:31:04,VALID,1002.88,VALID,0,INVALID,163.769,VALID,0,VALID,23.0383,VALID,356,VALID,0.50625,
2011-01-19, 03:32:04,VALID,1002.91,VALID,0,INVALID,163.769,VALID,0,VALID,23.0595,VALID,14,VALID,0.773828,
2011-01-19, 03:33:04,VALID,1002.92,VALID,0,INVALID,163.777,VALID,0,VALID,23.0595,VALID,25,VALID,0.567187,
2011-01-19, 03:34:04,VALID,1002.91,VALID,0,INVALID,163.777,VALID,0,VALID,23.0401,VALID,25,VALID,0.496094,
2011-01-19, 03:35:04,VALID,1002.93,VALID,0,INVALID,163.777,VALID,0.100563,VALID,22.9994,VALID,25,VALID,0.593359,
2011-01-19, 03:36:04,VALID,1002.91,VALID,0,INVALID,163.777,VALID,0,VALID,23.0012,VALID,25,VALID,0.323438,
2011-01-19, 03:37:04,VALID,1002.89,VALID,0,INVALID,163.792,VALID,0,VALID,23.0012,VALID,25,VALID,0.58125,